This is the latest recevied weather packets stored in our database for station/object AK4NG. If no packets are shown the sender has not sent any weather packets the latest 10 day(s).
| Time | Temp. | Humidity | Pressure | Rain* | Wind** | Luminosity | Snow |
|---|---|---|---|---|---|---|---|
| 1777477643 | 25° C | 79% | 1016.2 hPa | 0 mm | - | 744 W/m² | - |
| 1777477340 | 25° C | 82% | 1016.2 hPa | 0 mm | - | 798 W/m² | - |
| 1777477036 | 24.44° C | 81% | 1016.5 hPa | 0 mm | - | 778 W/m² | - |
| 1777476734 | 24.44° C | 80% | 1016.3 hPa | 0 mm | - | 772 W/m² | - |
| 1777476430 | 23.89° C | 82% | 1016.8 hPa | 0 mm | - | 745 W/m² | - |
| 1777476127 | 23.89° C | 84% | 1016.8 hPa | 0 mm | - | 725 W/m² | - |
| 1777475823 | 23.33° C | 84% | 1016.8 hPa | 0 mm | - | 739 W/m² | - |
| 1777475519 | 23.33° C | 84% | 1017.2 hPa | 0 mm | - | 227 W/m² | - |
| 1777475215 | 22.78° C | 86% | 1017.3 hPa | 0 mm | - | 708 W/m² | - |
| 1777474911 | 22.78° C | 88% | 1017.5 hPa | 0 mm | - | 683 W/m² | - |
| 1777474606 | 22.22° C | 90% | 1017.5 hPa | 0 mm | - | 689 W/m² | - |
| 1777474303 | 21.67° C | 91% | 1017.7 hPa | 0 mm | - | 362 W/m² | - |
| 1777474000 | 21.11° C | 92% | 1017.4 hPa | 0 mm | - | 303 W/m² | - |
| 1777473698 | 21.11° C | 92% | 1017.2 hPa | 0 mm | - | 250 W/m² | - |
| 1777473394 | 21.11° C | 92% | 1017.1 hPa | 0 mm | - | 230 W/m² | - |
| 1777473090 | 21.11° C | 92% | 1017.1 hPa | 0 mm | - | 295 W/m² | - |
| 1777472787 | 21.11° C | 89% | 1017.7 hPa | 0 mm | - | 274 W/m² | - |
| 1777472483 | 21.11° C | 89% | 1018.1 hPa | 0 mm | - | 220 W/m² | - |
| 1777472181 | 21.11° C | 89% | 1018.3 hPa | 0 mm | - | 265 W/m² | - |
| 1777471881 | 21.11° C | 93% | 1018.4 hPa | 0 mm | - | 241 W/m² | - |
| 1777471578 | 21.11° C | 91% | 1018.3 hPa | 0 mm | - | 183 W/m² | - |
| 1777471275 | 20.56° C | 90% | 1018.3 hPa | 0 mm | - | 145 W/m² | - |
| 1777470971 | 21.11° C | 91% | 1018.4 hPa | 0 mm | - | 135 W/m² | - |
| 1777470668 | 20.56° C | 92% | 1018.1 hPa | 0 mm | - | 245 W/m² | - |
| 1777470364 | 20.56° C | 92% | 1017.5 hPa | 0 mm | - | 246 W/m² | - |
* Rain latest hour (hover to see other rain measurements)
** Current wind speed in m/s (hover to see current wind gust speed)